| time (UTC) | temp F | wind direction | speed MPH | gust MPH | rain 1hr in | rain 24hr in | rain mn in | humidity % | barometer mb |
| 20260904020242 | 88 | 199 | 0.0 | 0.0 | 0.00 | 0.00 | 0.00 | 58 | 997.2 |
| 20260904015744 | 89 | 199 | 0.0 | 0.0 | 0.00 | 0.00 | 0.00 | 56 | 997.2 |
| 20260904015242 | 89 | 199 | 0.0 | 0.0 | 0.00 | 0.00 | 0.00 | 56 | 997.0 |
| 20260904014741 | 89 | 199 | 0.0 | 0.0 | 0.00 | 0.00 | 0.00 | 56 | 997.0 |
| 20260904014243 | 90 | 199 | 0.0 | 0.0 | 0.00 | 0.00 | 0.00 | 54 | 997.0 |
| 20260904013741 | 90 | 199 | 0.0 | 0.0 | 0.00 | 0.00 | 0.00 | 54 | 996.9 |
| 20260904013513 | 91 | 199 | 0.0 | 0.0 | 0.00 | 0.00 | 0.00 | 53 | 996.8 |
| 20260904013012 | 91 | 199 | 0.0 | 2.0 | 0.00 | 0.00 | 0.00 | 53 | 996.8 |
| 20260904012241 | 91 | 199 | 0.0 | 2.0 | 0.00 | 0.00 | 0.00 | 52 | 996.8 |
| 20260904011741 | 92 | 217 | 0.0 | 0.0 | 0.00 | 0.00 | 0.00 | 51 | 996.7 |
| 20260904011513 | 92 | 217 | 0.0 | 0.0 | 0.00 | 0.00 | 0.00 | 51 | 996.6 |
| 20260904010740 | 92 | 217 | 0.0 | 0.0 | 0.00 | 0.00 | 0.00 | 50 | 996.6 |
| 20260904010242 | 93 | 217 | 0.0 | 3.0 | 0.00 | 0.00 | 0.00 | 50 | 996.4 |
| 20260904005741 | 93 | 217 | 0.0 | 3.0 | 0.00 | 0.00 | 0.00 | 49 | 996.5 |
| 20260904005513 | 93 | 217 | 0.0 | 3.0 | 0.00 | 0.00 | 0.00 | 48 | 996.5 |
| 20260904004737 | 94 | 217 | 1.0 | 4.0 | 0.00 | 0.00 | 0.00 | 48 | 996.5 |
| 20260904004240 | 94 | 217 | 1.0 | 4.0 | 0.00 | 0.00 | 0.00 | 47 | 996.4 |
| 20260904004011 | 94 | 254 | 2.0 | 6.0 | 0.00 | 0.00 | 0.00 | 46 | 996.3 |
| 20260904003240 | 95 | 214 | 3.0 | 6.0 | 0.00 | 0.00 | 0.00 | 46 | 996.3 |
| 20260904002739 | 95 | 234 | 1.0 | 4.0 | 0.00 | 0.00 | 0.00 | 46 | 996.3 |
| 20260904002240 | 95 | 196 | 2.0 | 6.0 | 0.00 | 0.00 | 0.00 | 46 | 996.2 |
| 20260904001737 | 95 | 189 | 4.0 | 6.0 | 0.00 | 0.00 | 0.00 | 46 | 996.1 |
| 20260904001237 | 96 | 247 | 4.0 | 7.0 | 0.00 | 0.00 | 0.00 | 46 | 996.1 |
| 20260904001009 | 96 | 214 | 4.0 | 7.0 | 0.00 | 0.00 | 0.00 | 46 | 996.1 |
| 20260904000240 | 96 | 223 | 4.0 | 9.0 | 0.00 | 0.00 | 0.00 | 46 | 996.0 |
| 20260904000012 | 96 | 251 | 5.0 | 9.0 | 0.00 | 0.00 | 0.00 | 46 | 996.0 |
| 20260903235239 | 96 | 210 | 4.0 | 9.0 | 0.00 | 0.00 | 0.00 | 46 | 996.0 |
| 20260903235011 | 97 | 266 | 5.0 | 7.0 | 0.00 | 0.00 | 0.00 | 45 | 995.9 |
| 20260903234239 | 97 | 217 | 4.0 | 7.0 | 0.00 | 0.00 | 0.00 | 45 | 996.0 |
| 20260903234010 | 97 | 223 | 3.0 | 10.0 | 0.00 | 0.00 | 0.00 | 46 | 995.9 |
| 20260903233239 | 97 | 241 | 5.0 | 10.0 | 0.00 | 0.00 | 0.00 | 45 | 995.9 |
| 20260903232737 | 97 | 238 | 6.0 | 10.0 | 0.00 | 0.00 | 0.00 | 45 | 995.9 |
| 20260903232237 | 97 | 251 | 6.0 | 11.0 | 0.00 | 0.00 | 0.00 | 45 | 995.9 |
| 20260903231738 | 98 | 247 | 6.0 | 11.0 | 0.00 | 0.00 | 0.00 | 46 | 995.9 |
| 20260903231239 | 98 | 214 | 7.0 | 12.0 | 0.00 | 0.00 | 0.00 | 46 | 995.9 |
| 20260903230737 | 98 | 254 | 8.0 | 12.0 | 0.00 | 0.00 | 0.00 | 45 | 995.8 |
| 20260903230008 | 98 | 219 | 7.0 | 13.0 | 0.00 | 0.00 | 0.00 | 45 | 995.7 |
| 20260903225237 | 98 | 258 | 6.0 | 12.0 | 0.00 | 0.00 | 0.00 | 46 | 995.8 |
| 20260903224737 | 98 | 230 | 7.0 | 15.0 | 0.00 | 0.00 | 0.00 | 46 | 995.7 |
| 20260903224237 | 98 | 259 | 10.0 | 15.0 | 0.00 | 0.00 | 0.00 | 46 | 995.6 |
| 20260903223736 | 99 | 251 | 4.0 | 12.0 | 0.00 | 0.00 | 0.00 | 47 | 995.6 |
| 20260903223238 | 98 | 202 | 6.0 | 12.0 | 0.00 | 0.00 | 0.00 | 47 | 995.6 |
| 20260903222738 | 99 | 265 | 8.0 | 12.0 | 0.00 | 0.00 | 0.00 | 46 | 995.7 |
| 20260903222508 | 99 | 216 | 7.0 | 11.0 | 0.00 | 0.00 | 0.00 | 46 | 995.7 |
| 20260903221737 | 99 | 210 | 6.0 | 14.0 | 0.00 | 0.00 | 0.00 | 46 | 995.8 |
| 20260903221236 | 99 | 245 | 8.0 | 14.0 | 0.00 | 0.00 | 0.00 | 46 | 995.8 |
| 20260903221008 | 99 | 268 | 6.0 | 14.0 | 0.00 | 0.00 | 0.00 | 46 | 995.7 |
| 20260903220236 | 99 | 262 | 5.0 | 10.0 | 0.00 | 0.00 | 0.00 | 46 | 995.8 |
| 20260903215739 | 99 | 213 | 6.0 | 13.0 | 0.00 | 0.00 | 0.00 | 45 | 995.7 |
| 20260903215235 | 99 | 209 | 7.0 | 13.0 | 0.00 | 0.00 | 0.00 | 45 | 995.8 |
| 20260903214737 | 99 | 226 | 7.0 | 12.0 | 0.00 | 0.00 | 0.00 | 45 | 995.7 |
| 20260903214236 | 99 | 237 | 6.0 | 12.0 | 0.00 | 0.00 | 0.00 | 45 | 995.7 |
| 20260903213736 | 100 | 250 | 4.0 | 12.0 | 0.00 | 0.00 | 0.00 | 45 | 995.6 |
| 20260903213235 | 100 | 266 | 7.0 | 12.0 | 0.00 | 0.00 | 0.00 | 45 | 995.7 |
| 20260903212736 | 100 | 209 | 6.0 | 11.0 | 0.00 | 0.00 | 0.00 | 45 | 995.9 |
| 20260903212235 | 100 | 245 | 5.0 | 9.0 | 0.00 | 0.00 | 0.00 | 44 | 995.9 |
| 20260903211736 | 100 | 203 | 5.0 | 14.0 | 0.00 | 0.00 | 0.00 | 43 | 995.9 |
| 20260903211235 | 100 | 255 | 7.0 | 14.0 | 0.00 | 0.00 | 0.00 | 43 | 995.9 |
| 20260903210736 | 101 | 251 | 5.0 | 11.0 | 0.00 | 0.00 | 0.00 | 43 | 995.9 |
| 20260903210236 | 101 | 213 | 4.0 | 14.0 | 0.00 | 0.00 | 0.00 | 43 | 995.9 |
| 20260903205735 | 101 | 202 | 6.0 | 14.0 | 0.00 | 0.00 | 0.00 | 42 | 996.0 |
| 20260903205236 | 101 | 200 | 6.0 | 15.0 | 0.00 | 0.00 | 0.00 | 42 | 996.1 |
| 20260903204734 | 101 | 219 | 7.0 | 15.0 | 0.00 | 0.00 | 0.00 | 42 | 996.1 |
| 20260903204235 | 101 | 206 | 3.0 | 11.0 | 0.00 | 0.00 | 0.00 | 43 | 996.1 |
| 20260903204004 | 101 | 185 | 5.0 | 11.0 | 0.00 | 0.00 | 0.00 | 42 | 996.1 |
| 20260903203506 | 101 | 278 | 1.0 | 7.0 | 0.00 | 0.00 | 0.00 | 43 | 996.1 |
| 20260903202734 | 100 | 223 | 5.0 | 12.0 | 0.00 | 0.00 | 0.00 | 42 | 996.1 |
| 20260903202235 | 100 | 202 | 3.0 | 12.0 | 0.00 | 0.00 | 0.00 | 43 | 996.2 |
| 20260903201735 | 101 | 264 | 8.0 | 11.0 | 0.00 | 0.00 | 0.00 | 42 | 996.3 |
| 20260903201506 | 101 | 219 | 5.0 | 11.0 | 0.00 | 0.00 | 0.00 | 43 | 996.4 |
| 20260903200733 | 101 | 250 | 6.0 | 11.0 | 0.00 | 0.00 | 0.00 | 43 | 996.4 |
| 20260903200233 | 100 | 39 | 1.0 | 9.0 | 0.00 | 0.00 | 0.00 | 44 | 996.5 |
| 20260903195733 | 99 | 278 | 3.0 | 12.0 | 0.00 | 0.00 | 0.00 | 45 | 996.4 |
| 20260903195234 | 99 | 278 | 7.0 | 12.0 | 0.00 | 0.00 | 0.00 | 45 | 996.5 |
| 20260903194735 | 98 | 248 | 3.0 | 9.0 | 0.00 | 0.00 | 0.00 | 47 | 996.6 |
| 20260903194236 | 98 | 154 | 2.0 | 4.0 | 0.00 | 0.00 | 0.00 | 46 | 996.7 |
| 20260903194004 | 98 | 257 | 2.0 | 6.0 | 0.00 | 0.00 | 0.00 | 46 | 996.8 |
| 20260903193234 | 99 | 252 | 2.0 | 6.0 | 0.00 | 0.00 | 0.00 | 46 | 996.9 |
| 20260903192733 | 99 | 245 | 4.0 | 6.0 | 0.00 | 0.00 | 0.00 | 47 | 996.9 |
| 20260903192233 | 100 | 162 | 4.0 | 11.0 | 0.00 | 0.00 | 0.00 | 47 | 997.0 |
| 20260903191734 | 100 | 250 | 3.0 | 11.0 | 0.00 | 0.00 | 0.00 | 46 | 997.0 |
| 20260903191233 | 100 | 247 | 5.0 | 9.0 | 0.00 | 0.00 | 0.00 | 46 | 997.0 |
| 20260903190733 | 99 | 262 | 1.0 | 11.0 | 0.00 | 0.00 | 0.00 | 48 | 997.2 |
| 20260903190232 | 99 | 216 | 8.0 | 11.0 | 0.00 | 0.00 | 0.00 | 47 | 997.3 |
| 20260903185732 | 99 | 255 | 6.0 | 10.0 | 0.00 | 0.00 | 0.00 | 47 | 997.4 |
| 20260903185233 | 98 | 255 | 1.0 | 5.0 | 0.00 | 0.00 | 0.00 | 48 | 997.3 |
| 20260903184731 | 98 | 255 | 2.0 | 10.0 | 0.00 | 0.00 | 0.00 | 48 | 997.4 |
| 20260903184232 | 98 | 257 | 4.0 | 13.0 | 0.00 | 0.00 | 0.00 | 48 | 997.5 |
| 20260903183732 | 99 | 261 | 6.0 | 13.0 | 0.00 | 0.00 | 0.00 | 47 | 997.6 |
| 20260903183232 | 99 | 266 | 5.0 | 13.0 | 0.00 | 0.00 | 0.00 | 47 | 997.6 |
| 20260903182733 | 99 | 259 | 4.0 | 9.0 | 0.00 | 0.00 | 0.00 | 47 | 997.6 |
| 20260903182231 | 99 | 243 | 4.0 | 7.0 | 0.00 | 0.00 | 0.00 | 47 | 997.6 |
| 20260903181732 | 99 | 192 | 3.0 | 5.0 | 0.00 | 0.00 | 0.00 | 47 | 997.7 |
| 20260903181233 | 98 | 271 | 2.0 | 5.0 | 0.00 | 0.00 | 0.00 | 48 | 997.8 |
| 20260903181001 | 98 | 180 | 3.0 | 9.0 | 0.00 | 0.00 | 0.00 | 48 | 997.8 |
| 20260903180232 | 98 | 243 | 4.0 | 12.0 | 0.00 | 0.00 | 0.00 | 48 | 998.0 |
| 20260903180010 | 97 | 248 | 5.0 | 13.0 | 0.00 | 0.00 | 0.00 | 47 | 998.0 |
| 20260903175231 | 97 | 250 | 5.0 | 13.0 | 0.00 | 0.00 | 0.00 | 49 | 998.0 |
| 20260903174730 | 98 | 197 | 7.0 | 10.0 | 0.00 | 0.00 | 0.00 | 48 | 998.1 |
| 20260903174231 | 97 | 274 | 2.0 | 11.0 | 0.00 | 0.00 | 0.00 | 50 | 998.1 |
| 20260903173730 | 97 | 255 | 9.0 | 12.0 | 0.00 | 0.00 | 0.00 | 49 | 998.2 |
| 20260903173233 | 97 | 248 | 8.0 | 12.0 | 0.00 | 0.00 | 0.00 | 50 | 998.3 |
| 20260903172731 | 96 | 265 | 5.0 | 13.0 | 0.00 | 0.00 | 0.00 | 51 | 998.3 |
| 20260903171731 | 98 | 261 | 8.0 | 13.0 | 0.00 | 0.00 | 0.00 | 50 | 998.5 |
| 20260903171229 | 97 | 275 | 3.0 | 11.0 | 0.00 | 0.00 | 0.00 | 51 | 998.5 |
| 20260903170729 | 97 | 207 | 5.0 | 11.0 | 0.00 | 0.00 | 0.00 | 50 | 998.6 |
| 20260903170229 | 97 | 248 | 5.0 | 10.0 | 0.00 | 0.00 | 0.00 | 51 | 998.7 |
| 20260903165730 | 96 | 257 | 4.0 | 12.0 | 0.00 | 0.00 | 0.00 | 51 | 998.7 |
| 20260903165230 | 96 | 251 | 8.0 | 12.0 | 0.00 | 0.00 | 0.00 | 51 | 998.7 |
| 20260903164731 | 96 | 243 | 3.0 | 12.0 | 0.00 | 0.00 | 0.00 | 52 | 998.8 |
| 20260903164232 | 96 | 252 | 5.0 | 13.0 | 0.00 | 0.00 | 0.00 | 52 | 998.8 |
| 20260903163730 | 96 | 252 | 4.0 | 13.0 | 0.00 | 0.00 | 0.00 | 54 | 998.7 |
| 20260903163501 | 95 | 247 | 6.0 | 13.0 | 0.00 | 0.00 | 0.00 | 53 | 998.9 |
| 20260903162729 | 95 | 255 | 5.0 | 13.0 | 0.00 | 0.00 | 0.00 | 54 | 998.9 |
| 20260903162228 | 95 | 250 | 6.0 | 15.0 | 0.00 | 0.00 | 0.00 | 54 | 998.9 |
| 20260903161728 | 95 | 251 | 9.0 | 15.0 | 0.00 | 0.00 | 0.00 | 53 | 999.0 |
| 20260903161502 | 95 | 238 | 10.0 | 15.0 | 0.00 | 0.00 | 0.00 | 55 | 999.1 |
| 20260903160731 | 94 | 265 | 7.0 | 11.0 | 0.00 | 0.00 | 0.00 | 56 | 999.2 |
| 20260903160230 | 94 | 234 | 3.0 | 10.0 | 0.00 | 0.00 | 0.00 | 57 | 999.2 |
| 20260903155728 | 94 | 250 | 2.0 | 5.0 | 0.00 | 0.00 | 0.00 | 59 | 999.2 |
| 20260903155459 | 93 | 0 | 2.0 | 5.0 | 0.00 | 0.00 | 0.00 | 61 | 999.2 |
| 20260903154507 | 93 | 228 | 3.0 | 5.0 | 0.00 | 0.00 | 0.00 | 62 | 999.3 |
| 20260903154003 | 92 | 172 | 2.0 | 5.0 | 0.00 | 0.00 | 0.00 | 63 | 999.3 |
| 20260903153227 | 92 | 272 | 1.0 | 5.0 | 0.00 | 0.00 | 0.00 | 64 | 999.3 |
| 20260903152729 | 91 | 274 | 2.0 | 5.0 | 0.00 | 0.00 | 0.00 | 65 | 999.3 |
| 20260903151729 | 90 | 231 | 4.0 | 7.0 | 0.00 | 0.00 | 0.00 | 66 | 999.4 |
| 20260903151227 | 90 | 244 | 4.0 | 6.0 | 0.00 | 0.00 | 0.00 | 66 | 999.4 |
| 20260903150728 | 89 | 220 | 4.0 | 5.0 | 0.00 | 0.00 | 0.00 | 67 | 999.3 |
| 20260903150227 | 89 | 255 | 2.0 | 5.0 | 0.00 | 0.00 | 0.00 | 69 | 999.3 |
| 20260903145726 | 88 | 209 | 0.0 | 0.0 | 0.00 | 0.00 | 0.00 | 70 | 999.4 |
| 20260903145226 | 87 | 250 | 0.0 | 0.0 | 0.00 | 0.00 | 0.00 | 71 | 999.4 |
| 20260903144728 | 0 | 0.0 | 0.0 | 0.00 | 0.00 | 0.00 | 999.4 | ||
| 20260903144457 | 86 | 193 | 0.0 | 0.0 | 0.00 | 0.00 | 0.00 | 73 | 999.4 |
| 20260903143726 | 86 | 193 | 0.0 | 0.0 | 0.00 | 0.00 | 0.00 | 73 | 999.5 |
| 20260903143225 | 86 | 193 | 0.0 | 0.0 | 0.00 | 0.00 | 0.00 | 74 | 999.6 |
| 20260903142725 | 85 | 193 | 0.0 | 0.0 | 0.00 | 0.00 | 0.00 | 76 | 999.6 |
| 20260903142226 | 84 | 193 | 0.0 | 0.0 | 0.00 | 0.00 | 0.00 | 77 | 999.6 |
| 20260903141725 | 84 | 193 | 0.0 | 0.0 | 0.00 | 0.00 | 0.00 | 77 | 999.6 |
| 20260903141224 | 83 | 251 | 0.0 | 0.0 | 0.00 | 0.00 | 0.00 | 78 | 999.7 |
| 20260903140724 | 82 | 251 | 0.0 | 0.0 | 0.00 | 0.00 | 0.00 | 80 | 999.8 |
| 20260903140224 | 81 | 251 | 0.0 | 0.0 | 0.00 | 0.00 | 0.00 | 81 | 999.7 |
| 20260903135726 | 80 | 251 | 0.0 | 0.0 | 0.00 | 0.00 | 0.00 | 83 | 999.7 |
| 20260903135224 | 79 | 251 | 0.0 | 0.0 | 0.00 | 0.00 | 0.00 | 85 | 999.9 |
| 20260903134723 | 79 | 251 | 0.0 | 0.0 | 0.00 | 0.00 | 0.00 | 85 | 999.9 |
| 20260903134224 | 78 | 175 | 0.0 | 0.0 | 0.00 | 0.00 | 0.00 | 86 | 1000.0 |
| 20260903133723 | 78 | 173 | 0.0 | 0.0 | 0.00 | 0.00 | 0.00 | 88 | 999.9 |
| 20260903133223 | 77 | 173 | 0.0 | 0.0 | 0.00 | 0.00 | 0.00 | 89 | 1000.0 |
| 20260903132723 | 76 | 173 | 0.0 | 0.0 | 0.00 | 0.00 | 0.00 | 90 | 1000.0 |
| 20260903132224 | 75 | 173 | 0.0 | 0.0 | 0.00 | 0.00 | 0.00 | 93 | 1000.0 |
| 20260903131723 | 75 | 173 | 0.0 | 0.0 | 0.00 | 0.00 | 0.00 | 93 | 999.9 |
| 20260903131221 | 75 | 173 | 0.0 | 0.0 | 0.00 | 0.00 | 0.00 | 93 | 1000.0 |
| 20260903130722 | 74 | 173 | 0.0 | 0.0 | 0.00 | 0.00 | 0.00 | 93 | 1000.0 |
| 20260903125726 | 74 | 173 | 0.0 | 0.0 | 0.00 | 0.00 | 0.00 | 94 | 1000.0 |
| 20260903125221 | 73 | 173 | 0.0 | 0.0 | 0.00 | 0.00 | 0.00 | 95 | 1000.1 |
| 20260903124721 | 73 | 173 | 0.0 | 0.0 | 0.00 | 0.00 | 0.00 | 95 | 1000.1 |
| 20260903124221 | 73 | 173 | 0.0 | 0.0 | 0.00 | 0.00 | 0.00 | 95 | 1000.0 |
| 20260903123720 | 72 | 173 | 0.0 | 0.0 | 0.00 | 0.00 | 0.00 | 94 | 999.9 |
| 20260903123221 | 72 | 173 | 0.0 | 0.0 | 0.00 | 0.00 | 0.00 | 94 | 1000.0 |
| 20260903122720 | 72 | 173 | 0.0 | 0.0 | 0.00 | 0.00 | 0.00 | 94 | 1000.0 |
| 20260903122220 | 72 | 173 | 0.0 | 0.0 | 0.00 | 0.00 | 0.00 | 94 | 999.9 |
| 20260903121721 | 72 | 173 | 0.0 | 0.0 | 0.00 | 0.00 | 0.00 | 93 | 999.9 |
| 20260903121220 | 72 | 173 | 0.0 | 0.0 | 0.00 | 0.00 | 0.00 | 93 | 999.9 |
| 20260903120718 | 72 | 173 | 0.0 | 0.0 | 0.00 | 0.00 | 0.00 | 93 | 999.9 |
| 20260903120221 | 72 | 173 | 0.0 | 0.0 | 0.00 | 0.00 | 0.00 | 93 | 999.8 |
| 20260903115722 | 72 | 173 | 0.0 | 0.0 | 0.00 | 0.00 | 0.00 | 93 | 999.6 |
| 20260903115219 | 72 | 173 | 0.0 | 0.0 | 0.00 | 0.00 | 0.00 | 93 | 999.6 |
| 20260903114719 | 72 | 173 | 0.0 | 0.0 | 0.00 | 0.00 | 0.00 | 93 | 999.6 |
| 20260903114220 | 72 | 173 | 0.0 | 0.0 | 0.00 | 0.00 | 0.00 | 93 | 999.5 |
| 20260903113720 | 72 | 173 | 0.0 | 0.0 | 0.00 | 0.00 | 0.00 | 93 | 999.6 |
| 20260903113220 | 72 | 173 | 0.0 | 0.0 | 0.00 | 0.00 | 0.00 | 93 | 999.5 |
| 20260903112951 | 72 | 173 | 0.0 | 0.0 | 0.00 | 0.00 | 0.00 | 93 | 999.5 |
| 20260903112218 | 72 | 173 | 0.0 | 0.0 | 0.00 | 0.00 | 0.00 | 92 | 999.5 |
| 20260903111719 | 72 | 173 | 0.0 | 0.0 | 0.00 | 0.00 | 0.00 | 92 | 999.4 |
| 20260903111219 | 72 | 173 | 0.0 | 0.0 | 0.00 | 0.00 | 0.00 | 92 | 999.4 |
| 20260903110719 | 72 | 173 | 0.0 | 0.0 | 0.00 | 0.00 | 0.00 | 92 | 999.5 |
| 20260903110220 | 72 | 173 | 0.0 | 0.0 | 0.00 | 0.00 | 0.00 | 92 | 999.5 |
| 20260903105720 | 72 | 173 | 0.0 | 0.0 | 0.00 | 0.00 | 0.00 | 92 | 999.4 |
| 20260903105217 | 72 | 173 | 0.0 | 0.0 | 0.00 | 0.00 | 0.00 | 92 | 999.4 |
| 20260903104718 | 72 | 173 | 0.0 | 0.0 | 0.00 | 0.00 | 0.00 | 92 | 999.3 |
| 20260903104219 | 72 | 173 | 0.0 | 0.0 | 0.00 | 0.00 | 0.00 | 92 | 999.4 |
| 20260903103717 | 72 | 173 | 0.0 | 0.0 | 0.00 | 0.00 | 0.00 | 92 | 999.3 |
| 20260903103449 | 72 | 173 | 0.0 | 0.0 | 0.00 | 0.00 | 0.00 | 92 | 999.3 |
| 20260903102717 | 72 | 173 | 0.0 | 0.0 | 0.00 | 0.00 | 0.00 | 92 | 999.3 |
| 20260903102220 | 72 | 173 | 0.0 | 0.0 | 0.00 | 0.00 | 0.00 | 92 | 999.3 |
| 20260903101718 | 72 | 173 | 0.0 | 0.0 | 0.00 | 0.00 | 0.00 | 92 | 999.3 |
| 20260903101449 | 72 | 173 | 0.0 | 0.0 | 0.00 | 0.00 | 0.00 | 91 | 999.4 |
| 20260903100950 | 72 | 173 | 0.0 | 0.0 | 0.00 | 0.00 | 0.00 | 91 | 999.5 |
| 20260903100449 | 72 | 173 | 0.0 | 0.0 | 0.00 | 0.00 | 0.00 | 91 | 999.3 |
| 20260903095715 | 73 | 173 | 0.0 | 0.0 | 0.00 | 0.00 | 0.00 | 91 | 999.3 |
| 20260903095217 | 73 | 173 | 0.0 | 0.0 | 0.00 | 0.00 | 0.00 | 91 | 999.2 |
| 20260903094717 | 73 | 173 | 0.0 | 0.0 | 0.00 | 0.00 | 0.00 | 91 | 999.2 |
| 20260903093717 | 73 | 173 | 0.0 | 0.0 | 0.00 | 0.00 | 0.00 | 91 | 999.2 |
| 20260903093217 | 73 | 173 | 0.0 | 0.0 | 0.00 | 0.00 | 0.00 | 91 | 999.2 |
| 20260903092716 | 73 | 173 | 0.0 | 0.0 | 0.00 | 0.00 | 0.00 | 91 | 999.2 |
| 20260903092217 | 73 | 173 | 0.0 | 0.0 | 0.00 | 0.00 | 0.00 | 91 | 999.2 |
| 20260903091713 | 73 | 173 | 0.0 | 0.0 | 0.00 | 0.00 | 0.00 | 90 | 999.3 |
| 20260903091445 | 73 | 173 | 0.0 | 0.0 | 0.00 | 0.00 | 0.00 | 90 | 999.2 |
| 20260903090717 | 73 | 173 | 0.0 | 0.0 | 0.00 | 0.00 | 0.00 | 90 | 999.2 |
| 20260903090216 | 73 | 173 | 0.0 | 0.0 | 0.00 | 0.00 | 0.00 | 90 | 999.2 |
| 20260903085716 | 73 | 173 | 0.0 | 0.0 | 0.00 | 0.00 | 0.00 | 90 | 999.2 |
| 20260903085216 | 73 | 173 | 0.0 | 0.0 | 0.00 | 0.00 | 0.00 | 90 | 999.3 |
| 20260903084715 | 74 | 173 | 0.0 | 0.0 | 0.00 | 0.00 | 0.00 | 90 | 999.3 |
| 20260903084216 | 74 | 173 | 0.0 | 0.0 | 0.00 | 0.00 | 0.00 | 89 | 999.2 |
| 20260903083713 | 74 | 173 | 0.0 | 0.0 | 0.00 | 0.00 | 0.00 | 89 | 999.1 |
| 20260903083445 | 74 | 173 | 0.0 | 0.0 | 0.00 | 0.00 | 0.00 | 89 | 999.1 |
| 20260903082716 | 74 | 173 | 0.0 | 0.0 | 0.00 | 0.00 | 0.00 | 89 | 999.0 |
| 20260903082215 | 74 | 173 | 0.0 | 0.0 | 0.00 | 0.00 | 0.00 | 89 | 999.0 |
| 20260903081716 | 74 | 173 | 0.0 | 0.0 | 0.00 | 0.00 | 0.00 | 89 | 999.0 |
| 20260903081216 | 74 | 173 | 0.0 | 0.0 | 0.00 | 0.00 | 0.00 | 89 | 999.0 |
| 20260903080715 | 74 | 173 | 0.0 | 0.0 | 0.00 | 0.00 | 0.00 | 88 | 999.0 |
| 20260903080215 | 74 | 173 | 0.0 | 0.0 | 0.00 | 0.00 | 0.00 | 88 | 998.9 |
| 20260903075728 | 74 | 173 | 0.0 | 0.0 | 0.00 | 0.00 | 0.00 | 88 | 998.9 |
| 20260903075447 | 74 | 173 | 0.0 | 0.0 | 0.00 | 0.00 | 0.00 | 88 | 998.9 |
| 20260903074715 | 75 | 173 | 0.0 | 0.0 | 0.00 | 0.00 | 0.00 | 88 | 998.8 |
| 20260903074215 | 75 | 173 | 0.0 | 0.0 | 0.00 | 0.00 | 0.00 | 88 | 998.9 |
| 20260903073716 | 75 | 173 | 0.0 | 0.0 | 0.00 | 0.00 | 0.00 | 88 | 998.8 |
| 20260903073214 | 75 | 173 | 0.0 | 0.0 | 0.00 | 0.00 | 0.00 | 88 | 998.8 |
| 20260903072945 | 75 | 173 | 0.0 | 0.0 | 0.00 | 0.00 | 0.00 | 88 | 998.9 |
| 20260903072213 | 75 | 173 | 0.0 | 0.0 | 0.00 | 0.00 | 0.00 | 87 | 998.9 |
| 20260903071714 | 75 | 173 | 0.0 | 0.0 | 0.00 | 0.00 | 0.00 | 87 | 998.9 |
| 20260903071446 | 75 | 173 | 0.0 | 0.0 | 0.00 | 0.00 | 0.00 | 87 | 998.8 |
| 20260903070713 | 75 | 173 | 0.0 | 0.0 | 0.00 | 0.00 | 0.00 | 87 | 998.9 |
| 20260903070215 | 75 | 173 | 0.0 | 0.0 | 0.00 | 0.00 | 0.00 | 87 | 998.8 |
| 20260903065711 | 76 | 173 | 0.0 | 0.0 | 0.00 | 0.00 | 0.00 | 86 | 998.8 |
| 20260903065213 | 76 | 173 | 0.0 | 0.0 | 0.00 | 0.00 | 0.00 | 86 | 998.9 |
| 20260903064717 | 76 | 173 | 0.0 | 0.0 | 0.00 | 0.00 | 0.00 | 86 | 998.8 |
| 20260903064213 | 76 | 173 | 0.0 | 0.0 | 0.00 | 0.00 | 0.00 | 86 | 998.9 |
| 20260903063944 | 76 | 173 | 0.0 | 0.0 | 0.00 | 0.00 | 0.00 | 86 | 998.9 |
| 20260903063213 | 76 | 173 | 0.0 | 0.0 | 0.00 | 0.00 | 0.00 | 85 | 998.9 |
| 20260903062713 | 76 | 173 | 0.0 | 0.0 | 0.00 | 0.00 | 0.00 | 85 | 998.9 |
| 20260903062212 | 76 | 173 | 0.0 | 0.0 | 0.00 | 0.00 | 0.00 | 85 | 999.0 |
| 20260903061713 | 76 | 173 | 0.0 | 0.0 | 0.00 | 0.00 | 0.00 | 85 | 999.0 |
| 20260903061213 | 76 | 173 | 0.0 | 0.0 | 0.00 | 0.00 | 0.00 | 85 | 999.0 |
| 20260903060713 | 76 | 173 | 0.0 | 0.0 | 0.00 | 0.00 | 0.00 | 85 | 999.0 |
| 20260903060212 | 77 | 173 | 0.0 | 0.0 | 0.00 | 0.00 | 0.00 | 85 | 999.0 |
| 20260903055713 | 77 | 173 | 0.0 | 0.0 | 0.00 | 0.00 | 0.00 | 84 | 999.1 |
| 20260903055212 | 77 | 173 | 0.0 | 0.0 | 0.00 | 0.00 | 0.00 | 83 | 999.0 |
| 20260903054210 | 77 | 173 | 0.0 | 0.0 | 0.00 | 0.00 | 0.00 | 83 | 999.0 |
| 20260903053711 | 77 | 173 | 0.0 | 0.0 | 0.00 | 0.00 | 0.00 | 82 | 999.1 |
| 20260903053442 | 77 | 173 | 0.0 | 0.0 | 0.00 | 0.00 | 0.00 | 82 | 999.2 |
| 20260903052711 | 78 | 173 | 0.0 | 0.0 | 0.00 | 0.00 | 0.00 | 82 | 999.0 |
| 20260903052210 | 78 | 173 | 0.0 | 0.0 | 0.00 | 0.00 | 0.00 | 82 | 999.0 |
| 20260903051710 | 78 | 173 | 0.0 | 0.0 | 0.00 | 0.00 | 0.00 | 82 | 999.0 |
| 20260903051210 | 78 | 173 | 0.0 | 0.0 | 0.00 | 0.00 | 0.00 | 82 | 998.9 |
| 20260903050709 | 78 | 173 | 0.0 | 0.0 | 0.00 | 0.00 | 0.00 | 82 | 998.9 |
| 20260903050442 | 78 | 173 | 0.0 | 0.0 | 0.00 | 0.00 | 0.00 | 81 | 998.8 |
| 20260903045710 | 78 | 173 | 0.0 | 0.0 | 0.00 | 0.00 | 0.00 | 81 | 998.8 |
| 20260903045210 | 78 | 173 | 0.0 | 0.0 | 0.00 | 0.00 | 0.00 | 81 | 998.8 |
| 20260903044710 | 78 | 173 | 0.0 | 0.0 | 0.00 | 0.00 | 0.00 | 81 | 998.7 |
| 20260903044210 | 78 | 173 | 0.0 | 0.0 | 0.00 | 0.00 | 0.00 | 81 | 998.8 |
| 20260903043709 | 79 | 173 | 0.0 | 0.0 | 0.00 | 0.00 | 0.00 | 80 | 998.8 |
| 20260903043210 | 79 | 173 | 0.0 | 2.0 | 0.00 | 0.00 | 0.00 | 80 | 998.8 |
| 20260903042709 | 79 | 173 | 1.0 | 2.0 | 0.00 | 0.00 | 0.00 | 80 | 998.8 |
| 20260903042211 | 79 | 173 | 0.0 | 0.0 | 0.00 | 0.00 | 0.00 | 79 | 998.8 |
| 20260903041709 | 79 | 173 | 0.0 | 0.0 | 0.00 | 0.00 | 0.00 | 79 | 998.7 |
| 20260903041209 | 79 | 173 | 0.0 | 0.0 | 0.00 | 0.00 | 0.00 | 79 | 998.7 |
| 20260903040709 | 79 | 173 | 0.0 | 1.0 | 0.00 | 0.00 | 0.00 | 79 | 998.7 |
| 20260903040211 | 80 | 173 | 0.0 | 2.0 | 0.00 | 0.00 | 0.00 | 78 | 998.7 |
| 20260903035708 | 80 | 173 | 1.0 | 2.0 | 0.00 | 0.00 | 0.00 | 78 | 998.8 |
| 20260903035208 | 80 | 173 | 0.0 | 1.0 | 0.00 | 0.00 | 0.00 | 78 | 998.6 |
| 20260903034707 | 80 | 173 | 0.0 | 0.0 | 0.00 | 0.00 | 0.00 | 77 | 998.7 |
| 20260903034208 | 80 | 173 | 0.0 | 2.0 | 0.00 | 0.00 | 0.00 | 77 | 998.8 |
| 20260903033707 | 80 | 173 | 0.0 | 2.0 | 0.00 | 0.00 | 0.00 | 77 | 998.8 |
| 20260903033440 | 81 | 173 | 0.0 | 1.0 | 0.00 | 0.00 | 0.00 | 76 | 998.7 |
| 20260903032707 | 81 | 173 | 0.0 | 0.0 | 0.00 | 0.00 | 0.00 | 75 | 998.8 |
| 20260903032207 | 81 | 173 | 0.0 | 0.0 | 0.00 | 0.00 | 0.00 | 74 | 998.7 |
| 20260903031707 | 82 | 173 | 0.0 | 0.0 | 0.00 | 0.00 | 0.00 | 74 | 998.7 |
| 20260903031208 | 82 | 173 | 0.0 | 0.0 | 0.00 | 0.00 | 0.00 | 74 | 998.7 |
| 20260903030710 | 82 | 173 | 0.0 | 1.0 | 0.00 | 0.00 | 0.00 | 74 | 998.7 |
| 20260903030207 | 82 | 173 | 0.0 | 1.0 | 0.00 | 0.00 | 0.00 | 73 | 998.7 |
| 20260903025707 | 82 | 173 | 0.0 | 0.0 | 0.00 | 0.00 | 0.00 | 73 | 998.7 |
| 20260903025207 | 83 | 173 | 0.0 | 0.0 | 0.00 | 0.00 | 0.00 | 72 | 998.6 |
| 20260903024707 | 83 | 173 | 0.0 | 0.0 | 0.00 | 0.00 | 0.00 | 72 | 998.7 |
| 20260903024437 | 83 | 173 | 0.0 | 2.0 | 0.00 | 0.00 | 0.00 | 71 | 998.7 |
| 20260903023938 | 83 | 173 | 0.0 | 2.0 | 0.00 | 0.00 | 0.00 | 71 | 998.6 |
| 20260903023206 | 83 | 173 | 0.0 | 2.0 | 0.00 | 0.00 | 0.00 | 71 | 998.5 |
| 20260903022706 | 84 | 173 | 1.0 | 2.0 | 0.00 | 0.00 | 0.00 | 70 | 998.5 |
| 20260903022206 | 84 | 173 | 1.0 | 2.0 | 0.00 | 0.00 | 0.00 | 70 | 998.5 |
| 20260903021705 | 84 | 173 | 0.0 | 0.0 | 0.00 | 0.00 | 0.00 | 69 | 998.4 |
| 20260903021206 | 85 | 173 | 0.0 | 0.0 | 0.00 | 0.00 | 0.00 | 68 | 998.4 |